sat.trackr.live / text

‹ back to catalog

PAKTES 1A

NORAD 43529 · 2018-056A

PAYLOAD ACTIVE UNKNOWN

§ Identity

Operator
Country
PAKI
Launch date
2018-07-09
Launch site
JSC
Launch vehicle
Mass (kg)
RCS (m²)

External: N2YO · Heavens-Above · Gunter

§ Orbital elements

Epoch: 2026-09-14T21:41:21.518592Z

Period
96.04 min
Inclination
98.1371°
Eccentricity
0.0021253
Mean motion
14.99408422 rev/d
Perigee alt
554.0 km
Apogee alt
583.5 km
Semi-major
6,946.9 km
B*
1.2514e-4
RAAN
58.2972°
Arg perigee
176.8648°
Mean anomaly
183.2711°
Rev number
44,536

§ Raw data

PAKTES 1A1 43529U 18056A   26257.90372128  .00001473  00000+0  12514-3 0  99972 43529  98.1371  58.2972 0021253 176.8648 183.2711 14.99408422445368

JSON: /api/v1/satellites/43529 · /tle

For live sub-satellite position, see the globe view (requires WebGL).

§ Visibility from observer

Set your observer location to see the next 7 days of passes ≥ 10°. The values pass through the URL so the page stays shareable.

No JS? Fill the form by hand. The geolocation button needs JavaScript.

§ Radio — SatNOGS DB

ModeDescriptionDownlinkUplink
FM S Band Center 2.246 GHz
FM S-band telemetry 2.250 GHz
FM Telemetry 401.415 MHz

3 transmitters · refreshed weekly from db.satnogs.org